TimeEDT,TemperatureF,Dew PointF,Humidity,Sea Level PressureIn,VisibilityMPH,Wind Direction,Wind SpeedMPH,Gust SpeedMPH,PrecipitationIn,Events,Conditions,WindDirDegrees,DateUTC
12:55 AM,60.1,32.0,35,30.04,10.0,East,3.5,-,N/A,,Clear,90,2013-05-06 04:55:00
1:55 AM,55.9,34.0,44,30.04,10.0,Calm,Calm,-,N/A,,Clear,0,2013-05-06 05:55:00
2:55 AM,54.0,34.0,47,30.04,10.0,Calm,Calm,-,N/A,,Clear,0,2013-05-06 06:55:00
3:55 AM,51.1,35.1,54,30.03,10.0,Calm,Calm,-,N/A,,Clear,0,2013-05-06 07:55:00
4:55 AM,51.1,34.0,52,30.03,10.0,Calm,Calm,-,N/A,,Clear,0,2013-05-06 08:55:00
5:55 AM,48.9,35.1,59,30.03,10.0,Calm,Calm,-,N/A,,Clear,0,2013-05-06 09:55:00
6:55 AM,50.0,37.0,61,30.04,10.0,North,3.5,-,N/A,,Clear,10,2013-05-06 10:55:00
7:55 AM,54.0,39.0,57,30.06,10.0,NE,5.8,-,N/A,,Clear,50,2013-05-06 11:55:00
8:55 AM,60.1,41.0,49,30.06,10.0,NE,8.1,-,N/A,,Clear,50,2013-05-06 12:55:00
9:55 AM,64.0,42.1,45,30.06,10.0,ENE,3.5,-,N/A,,Clear,70,2013-05-06 13:55:00
10:55 AM,66.9,42.1,40,30.06,10.0,East,5.8,-,N/A,,Clear,90,2013-05-06 14:55:00
11:55 AM,72.0,42.1,34,30.05,10.0,ENE,5.8,-,N/A,,Clear,70,2013-05-06 15:55:00
12:55 PM,75.9,35.1,23,30.03,10.0,SE,9.2,-,N/A,,Clear,130,2013-05-06 16:55:00
1:55 PM,73.0,43.0,34,30.02,10.0,West,6.9,-,N/A,,Clear,280,2013-05-06 17:55:00
2:55 PM,71.1,39.0,31,30.01,10.0,West,9.2,-,N/A,,Clear,270,2013-05-06 18:55:00
3:55 PM,73.0,39.0,29,29.99,10.0,WNW,8.1,-,N/A,,Clear,300,2013-05-06 19:55:00
4:55 PM,73.9,37.0,26,29.98,10.0,WNW,8.1,-,N/A,,Clear,290,2013-05-06 20:55:00
5:55 PM,75.0,34.0,22,29.97,10.0,WNW,11.5,-,N/A,,Clear,300,2013-05-06 21:55:00
6:55 PM,73.9,34.0,23,29.98,10.0,WNW,8.1,-,N/A,,Clear,290,2013-05-06 22:55:00
7:55 PM,71.1,34.0,26,29.98,10.0,NW,8.1,-,N/A,,Clear,310,2013-05-06 23:55:00
8:55 PM,68.0,34.0,28,29.99,10.0,NW,4.6,-,N/A,,Clear,310,2013-05-07 00:55:00
9:55 PM,64.9,37.0,36,30.01,10.0,NW,4.6,-,N/A,,Clear,320,2013-05-07 01:55:00
10:55 PM,62.1,39.0,43,30.01,10.0,NNW,5.8,-,N/A,,Clear,330,2013-05-07 02:55:00
11:55 PM,57.9,37.9,47,30.01,10.0,NNW,3.5,-,N/A,,Clear,330,2013-05-07 03:55:00